Total_Precipitation_Accumulation
0.14 0.20 0.22 0.24 0.23 0.21 0.16 0.14 0.22 0.32 0.49 0.67 0.83 1.09 1.00 1.02 1.09 1.15 1.08 1.03 0.97 1.01 1.12 1.29 1.34 1.34 1.39 1.44 1.49 1.64 1.64 1.61 1.69 1.87 1.93 1.98 2.00 2.03 2.10 2.11 2.00 2.15 2.15 2.25
0.17 0.16 0.16 0.18 0.20 0.17 0.13 0.12 0.13 0.26 0.52 0.72 0.82 0.94 0.98 0.88 0.94 1.15 1.10 1.04 1.05 1.13 1.26 1.27 1.21 1.22 1.24 1.21 1.28 1.50 1.63 1.72 1.80 1.85 1.83 1.95 1.98 1.97 1.99 2.05 2.10 2.15 2.16 2.27
0.23 0.18 0.20 0.28 0.24 0.21 0.18 0.17 0.18 0.32 0.53 0.74 0.90 0.83 0.90 0.91 0.92 0.92 0.93 0.94 1.07 1.19 1.22 1.22 1.27 1.27 1.17 1.07 1.17 1.49 1.63 1.68 1.88 1.99 1.92 2.02 2.05 2.06 2.04 2.06 2.21 2.27 2.35 2.40
0.30 0.34 0.41 0.33 0.29 0.28 0.31 0.34 0.31 0.35 0.51 0.74 0.97 0.95 0.90 0.92 0.92 0.85 0.74 0.85 0.97 1.07 1.13 1.17 1.19 1.18 1.14 1.14 1.20 1.48 1.72 1.85 2.15 2.33 2.18 2.17 2.20 2.21 2.26 2.38 2.41 2.46 2.49 2.40
0.47 0.50 0.52 0.45 0.42 0.44 0.56 0.75 0.59 0.59 0.79 0.84 0.83 0.90 0.99 0.95 0.89 0.81 0.83 0.92 0.94 1.05 1.17 1.30 1.45 1.46 1.41 1.46 1.57 1.75 1.94 2.11 2.39 2.62 2.72 2.66 2.47 2.52 2.61 2.61 2.57 2.63 2.68 2.65
0.64 0.73 0.84 0.76 0.61 0.56 0.74 1.22 1.00 0.86 0.92 0.95 0.94 1.18 1.17 0.90 0.78 0.74 0.81 0.97 1.12 1.28 1.31 1.38 1.58 1.60 1.63 1.75 1.98 2.11 2.10 2.13 2.35 2.63 2.74 2.71 2.66 2.84 2.94 2.82 2.72 2.75 2.63 2.50
0.76 0.86 0.88 0.79 0.69 0.75 1.32 1.75 1.28 1.14 1.15 1.22 1.22 1.17 1.06 0.95 0.93 0.82 0.81 0.95 1.00 1.03 1.17 1.32 1.48 1.63 1.83 1.92 2.06 2.16 2.22 2.23 2.36 2.60 2.89 2.85 2.90 2.97 3.04 3.03 3.03 3.00 2.88 2.72
0.89 1.14 1.29 0.86 0.78 1.20 1.61 1.45 1.49 1.51 1.47 1.38 1.22 1.07 0.98 0.95 1.01 0.92 0.90 0.98 1.03 0.99 1.09 1.29 1.52 1.78 1.92 1.98 2.09 2.27 2.33 2.32 2.38 2.65 2.78 2.81 2.96 3.03 3.15 3.28 3.25 3.21 3.16 2.87
1.21 1.45 1.33 1.06 1.15 1.25 1.35 1.47 1.52 1.45 1.46 1.40 1.32 1.21 1.12 1.09 1.08 1.06 1.12 1.11 1.20 1.24 1.23 1.37 1.57 1.79 2.03 2.10 2.13 2.10 2.09 2.12 2.24 2.42 2.56 2.74 2.86 2.81 2.90 3.06 3.01 2.98 2.93 2.76
1.64 1.63 1.46 1.31 1.25 1.26 1.24 1.31 1.29 1.21 1.18 1.16 1.18 1.17 1.16 1.17 1.24 1.26 1.33 1.30 1.34 1.47 1.48 1.51 1.60 1.78 1.96 2.00 2.01 2.00 1.95 1.95 2.10 2.34 2.49 2.61 2.68 2.64 2.70 2.75 2.79 2.83 2.82 2.72
2.11 2.06 1.88 1.72 1.52 1.46 1.34 1.34 1.30 1.20 1.17 1.11 1.03 1.06 1.08 1.06 1.15 1.22 1.29 1.33 1.35 1.51 1.61 1.62 1.66 1.83 1.96 2.02 2.09 2.14 2.09 2.09 2.22 2.32 2.40 2.56 2.65 2.68 2.70 2.67 2.65 2.66 2.62 2.54
2.47 2.24 2.14 2.11 1.75 1.65 1.61 1.47 1.34 1.34 1.32 1.20 1.06 1.03 1.08 1.10 1.16 1.22 1.30 1.44 1.50 1.60 1.65 1.62 1.64 1.79 1.90 2.09 2.29 2.37 2.29 2.26 2.25 2.22 2.29 2.29 2.31 2.27 2.26 2.22 2.23 2.19 2.15 2.06
1.91 1.93 2.01 2.18 2.02 1.72 1.56 1.47 1.39 1.41 1.42 1.28 1.17 1.11 1.04 1.06 1.16 1.26 1.41 1.56 1.72 1.80 1.74 1.67 1.72 1.83 1.89 2.03 2.30 2.45 2.38 2.24 2.14 2.07 2.06 2.07 2.11 2.16 2.20 2.12 2.07 1.99 1.90 1.76
1.82 2.11 2.25 2.18 2.24 2.12 1.81 1.60 1.46 1.41 1.38 1.24 1.18 1.17 1.16 1.16 1.17 1.28 1.49 1.62 1.64 1.71 1.72 1.67 1.69 1.81 1.87 2.00 2.28 2.46 2.39 2.28 2.08 1.98 1.97 1.96 2.09 2.15 2.14 2.12 2.09 1.89 1.75 1.68
1.98 2.10 2.17 2.01 2.03 2.15 2.13 1.99 1.79 1.63 1.48 1.35 1.29 1.28 1.24 1.23 1.24 1.31 1.42 1.59 1.74 1.76 1.66 1.61 1.63 1.69 1.75 1.88 2.09 2.28 2.34 2.25 2.12 2.09 2.10 2.01 1.96 2.01 2.01 1.99 2.04 1.95 1.77 1.73
1.88 1.81 1.88 1.99 2.07 2.06 2.05 2.00 1.92 1.80 1.58 1.44 1.45 1.41 1.32 1.32 1.36 1.42 1.48 1.60 1.89 2.04 1.89 1.71 1.63 1.62 1.70 1.86 1.95 1.95 2.02 2.03 2.01 2.06 2.06 2.00 2.00 2.01 2.05 2.10 2.13 2.04 1.91 1.81
1.72 1.63 1.63 1.76 1.90 2.02 2.03 1.85 1.75 1.69 1.62 1.54 1.50 1.47 1.42 1.42 1.50 1.65 1.73 1.78 1.84 1.84 1.84 1.83 1.75 1.67 1.74 1.87 2.00 1.92 1.78 1.71 1.68 1.65 1.71 1.81 1.88 1.98 2.09 2.15 2.19 2.10 1.89 1.74
1.43 1.42 1.50 1.57 1.64 1.82 1.88 1.72 1.61 1.57 1.56 1.53 1.50 1.46 1.46 1.52 1.76 2.01 2.05 1.96 1.96 1.84 1.69 1.67 1.68 1.69 1.79 1.85 1.95 1.96 1.83 1.65 1.49 1.45 1.50 1.64 1.86 2.00 2.08 2.03 1.98 1.93 1.83 1.74
1.25 1.28 1.33 1.38 1.41 1.50 1.62 1.69 1.69 1.62 1.53 1.52 1.61 1.66 1.67 1.67 1.84 2.10 2.17 2.16 2.14 2.00 1.73 1.58 1.58 1.56 1.66 1.76 1.88 1.85 1.66 1.48 1.31 1.29 1.36 1.53 1.77 2.09 2.10 1.88 1.76 1.73 1.78 1.76
1.25 1.25 1.27 1.22 1.20 1.25 1.38 1.51 1.56 1.60 1.59 1.60 1.65 1.70 1.77 1.83 2.00 2.19 2.28 2.31 2.20 1.96 1.70 1.51 1.40 1.37 1.41 1.59 1.71 1.66 1.54 1.40 1.29 1.28 1.34 1.47 1.73 2.03 1.96 1.79 1.68 1.69 1.73 1.75
1.24 1.23 1.28 1.27 1.24 1.20 1.25 1.32 1.39 1.51 1.61 1.63 1.76 1.87 1.90 1.89 2.01 2.25 2.45 2.40 2.06 1.74 1.55 1.49 1.32 1.22 1.26 1.47 1.56 1.49 1.45 1.42 1.36 1.38 1.43 1.59 1.85 2.03 1.93 1.80 1.73 1.71 1.71 1.77
1.22 1.19 1.20 1.30 1.37 1.32 1.28 1.31 1.31 1.38 1.50 1.52 1.65 1.79 1.82 1.92 1.92 1.92 2.02 2.18 2.00 1.77 1.44 1.27 1.23 1.26 1.34 1.47 1.48 1.43 1.44 1.45 1.45 1.49 1.56 1.69 1.82 1.87 1.84 1.79 1.82 1.79 1.75 1.77
1.25 1.21 1.20 1.31 1.45 1.46 1.35 1.33 1.33 1.42 1.54 1.51 1.55 1.64 1.78 1.93 1.92 1.94 1.84 1.69 1.64 1.61 1.38 1.24 1.27 1.33 1.37 1.39 1.47 1.49 1.53 1.50 1.44 1.46 1.55 1.64 1.71 1.75 1.78 1.80 1.77 1.71 1.75 1.72
1.21 1.24 1.28 1.26 1.32 1.47 1.55 1.51 1.47 1.50 1.54 1.43 1.37 1.38 1.51 1.67 1.66 1.60 1.66 1.69 1.61 1.57 1.40 1.35 1.31 1.30 1.33 1.29 1.37 1.48 1.55 1.47 1.38 1.37 1.47 1.55 1.58 1.62 1.74 1.84 1.77 1.68 1.64 1.59
1.31 1.35 1.37 1.36 1.43 1.55 1.62 1.58 1.59 1.61 1.62 1.50 1.38 1.28 1.29 1.48 1.59 1.51 1.54 1.57 1.55 1.48 1.37 1.36 1.36 1.40 1.37 1.39 1.41 1.41 1.36 1.28 1.27 1.31 1.39 1.48 1.54 1.57 1.63 1.65 1.56 1.57 1.55 1.50
1.45 1.40 1.38 1.39 1.41 1.46 1.48 1.59 1.69 1.69 1.73 1.72 1.54 1.31 1.26 1.34 1.40 1.46 1.54 1.53 1.55 1.59 1.42 1.33 1.31 1.35 1.37 1.45 1.45 1.34 1.22 1.19 1.23 1.25 1.32 1.44 1.45 1.50 1.56 1.53 1.43 1.46 1.45 1.43
1.40 1.35 1.33 1.34 1.31 1.27 1.27 1.38 1.54 1.69 1.86 1.89 1.67 1.37 1.28 1.33 1.39 1.44 1.46 1.49 1.56 1.61 1.54 1.41 1.32 1.30 1.30 1.34 1.34 1.27 1.20 1.16 1.18 1.22 1.26 1.29 1.33 1.41 1.48 1.50 1.41 1.38 1.40 1.39